Flag for Malaysia Weather past 2 weeks in Johor Bahru, Malaysia

Now
77 °F

Partly cloudy.


Feels Like: 78 °F
Forecast: 76 / 82 °F
Wind: 6 mph from Southwest

Location: Singapore / Paya Lebar

Current Time: Dec 29, 2014 at 5:43:40 AM

Latest Report: Dec 29, 2014 at 5:00 AM


Visibility: N/A

Pressure: 29.80 "Hg

Humidity: 89%

Dew point: 73 °F

Location of Johor BahruLocation

Historic Weather in Johor Bahru — Graph

°F

Johor Bahru temperature yesterday

Maximum temperature yesterday: 86 °F (at 2:00 PM)
Minimum temperature yesterday: 77 °F (at 5:00 AM)
Average temperature yesterday: 81 °F

Past Weeks' High & Low Weather Summary

 TemperatureHumidityPressure
High91 °F (Dec 14, 3:00 PM)100% (Dec 19, 3:00 PM)29.92 "Hg (Dec 19, 3:00 PM)
Low75 °F (Dec 26, 4:00 PM)55% (Dec 14, 6:00 PM)29.65 "Hg (Dec 22, 4:00 PM)
Average82 °F82%29.79 "Hg
* Reported Dec 13 11:00 PM — Dec 28 11:00 PM, Johor Bahru, Weather by CustomWeather, © 2014

Note: Actual official high and low records may vary slightly from our data, if they occured in-between our weather recording intervals... More about our weather records

Advertising

Johor Bahru weather history for previous 24 hours

 ConditionsComfort  
Time TempWeatherWind HumidityBarometerVisibility
11:00 PM
Dec 28
79 °FPassing clouds.10 mph84%29.86 "HgN/A
10:00 PM79 °FPassing clouds.10 mph84%29.86 "HgN/A
9:00 PM79 °FOvercast.9 mph84%29.86 "HgN/A
8:00 PM79 °FLight rain. Overcast.12 mph84%29.86 "HgN/A
7:00 PM81 °FLight rain. Overcast.12 mph84%29.83 "HgN/A
6:00 PM82 °FLight rain. Overcast.10 mph79%29.80 "HgN/A
5:00 PM86 °FScattered showers. Broken clouds.10 mph62%29.77 "HgN/A
4:00 PM86 °FThundershowers. Partly sunny.9 mph66%29.74 "HgN/A
3:00 PM86 °FScattered showers. Partly sunny.12 mph66%29.77 "HgN/A
2:00 PM86 °FPartly sunny.9 mph70%29.80 "HgN/A
1:00 PM84 °FPartly sunny.9 mph74%29.83 "HgN/A
12:00 PM84 °FPartly sunny.10 mph74%29.83 "HgN/A
11:00 AM84 °FPartly sunny.7 mph74%29.86 "HgN/A
10:00 AM82 °FBroken clouds.6 mph84%29.86 "HgN/A
9:00 AM79 °FScattered clouds.7 mph89%29.83 "HgN/A
8:00 AM77 °FBroken clouds.5 mph94%29.83 "HgN/A
7:00 AM77 °FPartly cloudy.2 mph94%29.80 "HgN/A
6:00 AM77 °FPassing clouds.2 mph94%29.77 "HgN/A
5:00 AM77 °FPassing clouds.5 mph89%29.77 "HgN/A
Weather by CustomWeather, © 2014

See weather overviewHow to use our weather pages